START_TIME,STEP,MOV.,M29,t_acc.,H22,t_acc.,H26,t_acc.,H30,t_acc.
1979-07-02 18:00:32.770 ,1,1,0.,24.0,0.,24.0,0.,24.0,0.,24.0
1979-07-02 18:00:56.770 ,2,1,0.,24.0,0.,24.0,0.,24.0,0.,24.0
1979-07-02 18:01:20.770 ,6,1,0.,24.0,0.,24.0,0.,24.0,0.,24.0
1979-07-02 18:01:44.770 ,5,1,0.,24.0,0.,24.0,0.,24.0,0.,24.0
1979-07-02 18:02:08.770 ,1,1,0.,24.0,0.,24.0,0.,24.0,0.,24.0
1979-07-02 18:02:32.770 ,2,1,0.,24.0,0.,24.0,0.,24.0,0.,24.0
1979-07-02 18:02:56.770 ,6,1,0.,24.0,0.,24.0,0.,24.0,0.,24.0
1979-07-02 18:03:20.770 ,5,1,0.,24.0,0.,24.0,0.,24.0,0.,24.0
1979-07-02 18:03:44.770 ,1,1,0.,24.0,0.,24.0,0.,24.0,0.,24.0
1979-07-02 18:04:08.770 ,2,1,0.,24.0,0.,24.0,0.,24.0,0.,24.0
1979-07-02 18:04:32.770 ,6,1,0.,24.0,0.,24.0,0.,24.0,0.,24.0
1979-07-02 18:04:56.770 ,5,1,0.,24.0,0.,24.0,0.,24.0,0.,24.0
1979-07-02 18:05:20.770 ,1,1,0.,24.0,0.,24.0,0.,24.0,0.,24.0
1979-07-02 18:05:44.770 ,0,0,0.,24.0,0.,24.0,0.,24.0,0.,24.0
1979-07-02 18:06:08.770 ,0,0,0.,24.0,0.,24.0,0.,24.0,0.,24.0
1979-07-02 18:06:32.770 ,5,1,0.,24.0,0.,24.0,0.,24.0,0.,24.0
1979-07-02 18:06:56.770 ,5,0,0.,24.0,0.,24.0,0.,24.0,0.,24.0
1979-07-02 18:07:20.770 ,4,1,0.,24.0,0.,24.0,0.,24.0,0.,24.0
1979-07-02 18:07:44.770 ,4,0,0.,24.0,0.,24.0,0.,24.0,0.,24.0
1979-07-02 18:08:08.770 ,3,1,0.,24.0,0.,24.0,0.,24.0,0.,24.0
1979-07-02 18:08:32.770 ,3,0,0.,24.0,0.,24.0,0.,24.0,0.,24.0
1979-07-02 18:08:56.770 ,2,1,0.,24.0,0.,24.0,0.,24.0,0.,24.0
1979-07-02 18:09:20.770 ,2,0,0.,24.0,0.,24.0,0.,24.0,0.,24.0
1979-07-02 18:09:44.770 ,1,1,0.,24.0,0.,24.0,0.,24.0,0.,24.0
1979-07-02 18:10:08.770 ,1,0,0.,24.0,0.,24.0,0.,24.0,0.,24.0
1979-07-02 18:10:32.770 ,0,1,0.,24.0,0.,24.0,0.,24.0,0.,24.0
1979-07-02 18:10:56.770 ,0,0,0.,24.0,0.,24.0,0.,24.0,0.,24.0
1979-07-02 18:11:20.770 ,0,1,0.,24.0,0.,24.0,0.,24.0,0.,24.0
1979-07-02 18:11:44.770 ,0,0,0.,24.0,0.,24.0,0.,24.0,0.,24.0
1979-07-02 18:12:08.770 ,1,1,0.,24.0,0.,24.0,0.,24.0,0.,24.0
1979-07-02 18:12:32.770 ,1,0,0.,24.0,0.,24.0,0.,24.0,0.,24.0
1979-07-02 18:12:56.770 ,2,1,0.,24.0,0.,24.0,0.,24.0,0.,24.0
1979-07-02 18:13:20.770 ,2,0,0.,24.0,0.,24.0,0.,24.0,0.,24.0
1979-07-02 18:13:44.770 ,3,1,0.,24.0,0.,24.0,0.,24.0,0.,24.0
1979-07-02 18:14:08.770 ,3,0,0.,24.0,0.,24.0,0.,24.0,0.,24.0
1979-07-02 18:14:32.770 ,4,1,0.,24.0,0.,24.0,0.,24.0,0.,24.0
1979-07-02 18:14:56.770 ,4,0,0.,24.0,0.,24.0,0.,24.0,0.,24.0
1979-07-02 18:15:20.770 ,5,1,0.,24.0,0.,24.0,0.,24.0,0.,24.0
1979-07-02 18:15:44.770 ,5,0,0.,24.0,0.,24.0,0.,24.0,0.,24.0
1979-07-02 18:16:08.770 ,6,1,0.,24.0,0.,24.0,0.,24.0,0.,24.0
1979-07-02 18:16:32.770 ,6,0,1.,24.0,0.,24.0,0.,24.0,0.,24.0
1979-07-02 18:16:56.770 ,7,1,0.,24.0,0.,24.0,0.,24.0,0.,24.0
1979-07-02 18:17:20.770 ,7,0,0.,24.0,0.,24.0,0.,24.0,0.,24.0
1979-07-02 18:17:44.770 ,7,1,0.,24.0,0.,24.0,0.,24.0,0.,24.0
1979-07-02 18:18:08.770 ,7,0,0.,24.0,0.,24.0,0.,24.0,0.,24.0
1979-07-02 18:18:32.770 ,6,1,0.,24.0,0.,24.0,0.,24.0,0.,24.0
1979-07-02 18:18:56.770 ,6,0,0.,24.0,0.,24.0,0.,24.0,0.,24.0
1979-07-02 18:19:20.770 ,5,1,0.,24.0,0.,24.0,0.,24.0,0.,24.0
1979-07-02 18:19:44.770 ,5,0,0.,24.0,0.,24.0,0.,24.0,0.,24.0
1979-07-02 18:20:08.770 ,4,1,0.,24.0,0.,24.0,0.,24.0,0.,24.0
1979-07-02 18:20:32.770 ,4,0,0.,24.0,0.,24.0,0.,24.0,0.,24.0
1979-07-02 18:20:56.770 ,3,1,0.,24.0,0.,24.0,0.,24.0,0.,24.0
1979-07-02 18:21:20.770 ,3,0,0.,24.0,0.,24.0,0.,24.0,0.,24.0
1979-07-02 18:21:44.770 ,2,1,0.,24.0,0.,24.0,0.,24.0,0.,24.0
1979-07-02 18:22:08.770 ,2,0,0.,24.0,0.,24.0,0.,24.0,0.,24.0
1979-07-02 18:22:32.770 ,1,1,0.,24.0,0.,24.0,0.,24.0,0.,24.0
1979-07-02 18:22:56.770 ,1,0,1.,24.0,0.,24.0,0.,24.0,0.,24.0
1979-07-02 18:24:08.770 ,0,0,0.,24.0,0.,24.0,0.,24.0,0.,24.0
1979-07-02 18:24:32.770 ,0,0,0.,24.0,0.,24.0,0.,24.0,0.,24.0
1979-07-02 18:24:56.770 ,1,1,0.,24.0,0.,24.0,0.,24.0,0.,24.0
1979-07-02 18:25:20.770 ,1,0,0.,24.0,0.,24.0,0.,24.0,0.,24.0
1979-07-02 18:25:44.770 ,2,1,0.,24.0,0.,24.0,0.,24.0,0.,24.0
1979-07-02 18:26:08.770 ,2,0,0.,24.0,0.,24.0,0.,24.0,0.,24.0
1979-07-02 18:26:32.770 ,3,1,0.,24.0,0.,24.0,0.,24.0,0.,24.0
1979-07-02 18:26:56.770 ,3,0,0.,24.0,0.,24.0,0.,24.0,0.,24.0
1979-07-02 18:27:20.770 ,4,1,0.,24.0,0.,24.0,0.,24.0,0.,24.0
1979-07-02 18:27:44.770 ,4,0,0.,24.0,0.,24.0,0.,24.0,0.,24.0
1979-07-02 18:28:08.770 ,5,1,0.,24.0,0.,24.0,0.,24.0,0.,24.0
1979-07-02 18:28:32.770 ,5,0,0.,24.0,0.,24.0,0.,24.0,0.,24.0
1979-07-02 18:28:56.770 ,6,1,0.,24.0,0.,24.0,0.,24.0,0.,24.0
1979-07-02 18:29:20.770 ,6,0,0.,24.0,0.,24.0,0.,24.0,0.,24.0
1979-07-02 18:29:44.770 ,7,1,0.,24.0,0.,24.0,0.,24.0,0.,24.0
1979-07-02 18:30:08.770 ,7,0,0.,24.0,0.,24.0,0.,24.0,0.,24.0
1979-07-02 18:30:32.770 ,7,1,0.,24.0,0.,24.0,0.,24.0,0.,24.0
1979-07-02 18:30:56.770 ,7,0,0.,24.0,0.,24.0,0.,24.0,0.,24.0
1979-07-02 18:31:20.770 ,6,1,0.,24.0,0.,24.0,0.,24.0,0.,24.0
1979-07-02 18:31:44.770 ,6,0,0.,24.0,0.,24.0,0.,24.0,0.,24.0
1979-07-02 18:32:08.770 ,5,1,0.,24.0,0.,24.0,0.,24.0,0.,24.0
1979-07-02 18:32:32.770 ,5,0,0.,24.0,0.,24.0,0.,24.0,0.,24.0
1979-07-02 18:32:56.770 ,4,0,,0,,0,,0,,0
1979-07-02 18:33:20.770 ,4,0,0.,24.0,0.,24.0,0.,24.0,0.,24.0
1979-07-02 18:33:44.770 ,3,1,0.,24.0,0.,24.0,0.,24.0,0.,24.0
1979-07-02 18:34:08.770 ,3,0,1.,24.0,0.,24.0,0.,24.0,0.,24.0
1979-07-02 18:34:32.770 ,2,1,0.,24.0,0.,24.0,0.,24.0,0.,24.0
1979-07-02 18:34:56.770 ,2,0,0.,24.0,0.,24.0,0.,24.0,0.,24.0
1979-07-02 18:35:20.770 ,1,1,0.,24.0,0.,24.0,0.,24.0,0.,24.0
1979-07-02 18:35:44.770 ,1,0,0.,24.0,0.,24.0,0.,24.0,0.,24.0
1979-07-02 18:36:08.770 ,0,1,0.,24.0,0.,24.0,0.,24.0,0.,24.0
1979-07-02 18:36:32.770 ,0,0,0.,24.0,0.,24.0,0.,24.0,0.,24.0
1979-07-02 18:36:56.770 ,0,1,0.,24.0,0.,24.0,0.,24.0,0.,24.0
1979-07-02 18:37:20.770 ,0,0,0.,24.0,0.,24.0,0.,24.0,0.,24.0
1979-07-02 18:37:44.770 ,1,1,0.,24.0,0.,24.0,0.,24.0,0.,24.0
1979-07-02 18:38:08.770 ,1,0,0.,24.0,0.,24.0,0.,24.0,0.,24.0
1979-07-02 18:38:32.770 ,2,1,0.,24.0,0.,24.0,0.,24.0,0.,24.0
1979-07-02 18:38:56.770 ,2,0,0.,24.0,0.,24.0,0.,24.0,0.,24.0
1979-07-02 18:39:20.770 ,3,1,0.,24.0,0.,24.0,0.,24.0,0.,24.0
1979-07-02 18:39:44.770 ,3,0,0.,24.0,0.,24.0,0.,24.0,0.,24.0
1979-07-02 18:40:08.770 ,4,1,0.,24.0,0.,24.0,0.,24.0,0.,24.0
1979-07-02 18:40:32.770 ,4,0,0.,24.0,0.,24.0,0.,24.0,0.,24.0
1979-07-02 18:40:56.770 ,5,1,0.,24.0,0.,24.0,0.,24.0,0.,24.0
1979-07-02 18:41:20.770 ,5,0,0.,24.0,0.,24.0,0.,24.0,0.,24.0
1979-07-02 18:41:44.770 ,6,1,0.,24.0,0.,24.0,0.,24.0,0.,24.0
1979-07-02 18:42:08.770 ,6,0,0.,24.0,0.,24.0,0.,24.0,0.,24.0
1979-07-02 18:42:32.770 ,7,0,0.,24.0,0.,24.0,0.,24.0,0.,24.0
1979-07-02 18:42:56.770 ,7,0,0.,24.0,0.,24.0,0.,24.0,0.,24.0
1979-07-02 18:43:20.770 ,5,1,0.,24.0,0.,24.0,0.,24.0,0.,24.0
1979-07-02 18:43:44.770 ,1,1,0.,24.0,0.,24.0,0.,24.0,0.,24.0
1979-07-02 18:44:08.770 ,2,1,0.,24.0,0.,24.0,0.,24.0,0.,24.0
1979-07-02 18:44:32.770 ,6,1,0.,24.0,0.,24.0,0.,24.0,0.,24.0
1979-07-02 18:44:56.770 ,5,1,0.,24.0,0.,24.0,0.,24.0,0.,24.0
1979-07-02 18:45:20.770 ,1,1,0.,24.0,0.,24.0,0.,24.0,0.,24.0
1979-07-02 18:45:44.770 ,2,1,0.,24.0,0.,24.0,0.,24.0,0.,24.0
1979-07-02 18:46:08.770 ,6,1,0.,24.0,0.,24.0,0.,24.0,0.,24.0
1979-07-02 18:46:32.770 ,5,1,0.,24.0,0.,24.0,0.,24.0,0.,24.0
1979-07-02 18:46:56.770 ,1,1,0.,24.0,0.,24.0,0.,24.0,0.,24.0
1979-07-02 18:47:20.770 ,2,1,0.,24.0,0.,24.0,0.,24.0,0.,24.0
1979-07-02 18:47:44.770 ,6,1,0.,24.0,0.,24.0,0.,24.0,0.,24.0
1979-07-02 18:48:08.770 ,5,1,0.,24.0,0.,24.0,0.,24.0,0.,24.0
1979-07-02 18:48:32.770 ,1,1,1.,24.0,0.,24.0,0.,24.0,0.,24.0
1979-07-02 18:48:56.770 ,2,1,0.,24.0,0.,24.0,0.,24.0,0.,24.0
1979-07-02 18:49:20.770 ,6,1,0.,24.0,0.,24.0,0.,24.0,0.,24.0
1979-07-02 18:49:44.770 ,5,1,0.,24.0,0.,24.0,0.,24.0,0.,24.0
1979-07-02 18:50:08.770 ,1,1,0.,24.0,0.,24.0,0.,24.0,0.,24.0
1979-07-02 18:50:32.770 ,2,1,0.,24.0,0.,24.0,0.,24.0,0.,24.0
1979-07-02 18:50:56.770 ,6,1,0.,24.0,0.,24.0,0.,24.0,0.,24.0
1979-07-02 18:51:20.770 ,5,1,0.,24.0,0.,24.0,0.,24.0,0.,24.0
1979-07-02 18:51:44.770 ,1,1,0.,24.0,0.,24.0,0.,24.0,0.,24.0
1979-07-02 18:52:08.770 ,2,1,0.,24.0,0.,24.0,0.,24.0,0.,24.0
1979-07-02 18:52:32.770 ,6,1,0.,24.0,0.,24.0,0.,24.0,0.,24.0
1979-07-02 18:52:56.770 ,5,1,0.,24.0,0.,24.0,0.,24.0,0.,24.0
1979-07-02 18:53:20.770 ,1,1,0.,24.0,0.,24.0,0.,24.0,0.,24.0
1979-07-02 18:53:44.770 ,0,0,0.,24.0,0.,24.0,0.,24.0,0.,24.0
1979-07-02 18:54:08.770 ,0,0,0.,24.0,0.,24.0,0.,24.0,0.,24.0
1979-07-02 18:54:32.770 ,5,1,0.,24.0,0.,24.0,0.,24.0,0.,24.0
1979-07-02 18:54:56.770 ,5,0,0.,24.0,0.,24.0,0.,24.0,0.,24.0
1979-07-02 18:55:20.770 ,4,1,0.,24.0,0.,24.0,0.,24.0,0.,24.0
1979-07-02 18:55:44.770 ,4,0,0.,24.0,0.,24.0,0.,24.0,0.,24.0
1979-07-02 18:56:08.770 ,3,1,0.,24.0,0.,24.0,0.,24.0,0.,24.0
1979-07-02 18:56:32.770 ,3,0,0.,24.0,0.,24.0,0.,24.0,0.,24.0
1979-07-02 18:56:56.770 ,2,1,0.,24.0,0.,24.0,0.,24.0,0.,24.0
1979-07-02 18:57:20.770 ,2,0,0.,24.0,0.,24.0,0.,24.0,0.,24.0
1979-07-02 18:57:44.770 ,1,1,0.,24.0,0.,24.0,0.,24.0,0.,24.0
1979-07-02 18:58:08.770 ,1,0,0.,24.0,0.,24.0,0.,24.0,0.,24.0
1979-07-02 18:58:32.770 ,0,1,0.,24.0,0.,24.0,0.,24.0,0.,24.0
1979-07-02 18:58:56.770 ,0,0,0.,24.0,0.,24.0,0.,24.0,0.,24.0
1979-07-02 18:59:20.770 ,0,1,0.,24.0,0.,24.0,0.,24.0,0.,24.0
1979-07-02 18:59:44.770 ,0,0,0.,24.0,0.,24.0,0.,24.0,0.,24.0
1979-07-02 19:00:08.770 ,1,1,0.,24.0,0.,24.0,0.,24.0,0.,24.0
1979-07-02 19:00:32.770 ,1,0,0.,24.0,0.,24.0,0.,24.0,0.,24.0
1979-07-02 19:00:56.770 ,2,1,0.,24.0,0.,24.0,0.,24.0,0.,24.0
1979-07-02 19:01:20.770 ,2,0,0.,24.0,0.,24.0,0.,24.0,0.,24.0
1979-07-02 19:01:44.770 ,3,1,0.,24.0,0.,24.0,0.,24.0,0.,24.0
1979-07-02 19:02:08.770 ,3,0,1.,24.0,0.,24.0,0.,24.0,0.,24.0
1979-07-02 19:02:32.770 ,4,1,0.,24.0,0.,24.0,0.,24.0,0.,24.0
1979-07-02 19:02:56.770 ,4,0,0.,24.0,0.,24.0,0.,24.0,0.,24.0
1979-07-02 19:03:20.770 ,5,1,0.,24.0,0.,24.0,0.,24.0,0.,24.0
1979-07-02 19:03:44.770 ,0,0,0.,24.0,0.,24.0,0.,24.0,0.,24.0
1979-07-02 19:04:17.170 ,0,0,0.,24.0,0.,24.0,0.,24.0,0.,24.0
1979-07-02 19:04:32.770 ,0,0,0.,24.0,0.,24.0,0.,24.0,0.,24.0
1979-07-02 19:04:56.770 ,7,1,0.,24.0,0.,24.0,0.,24.0,0.,24.0
1979-07-02 19:05:20.770 ,7,0,0.,24.0,0.,24.0,0.,24.0,0.,24.0
1979-07-02 19:05:44.770 ,7,0,,0,,0,,0,,0
1979-07-02 19:06:08.770 ,7,0,1.,24.0,0.,24.0,0.,24.0,0.,24.0
1979-07-02 19:06:32.770 ,6,1,0.,24.0,0.,24.0,0.,24.0,0.,24.0
1979-07-02 19:06:56.770 ,6,0,0.,24.0,0.,24.0,0.,24.0,0.,24.0
1979-07-02 19:07:20.770 ,5,1,0.,24.0,0.,24.0,0.,24.0,0.,24.0
1979-07-02 19:07:44.770 ,5,0,0.,24.0,0.,24.0,0.,24.0,0.,24.0
1979-07-02 19:08:08.770 ,4,1,0.,24.0,0.,24.0,0.,24.0,0.,24.0
1979-07-02 19:08:32.770 ,4,0,0.,24.0,0.,24.0,0.,24.0,0.,24.0
1979-07-02 19:08:56.770 ,3,1,0.,24.0,0.,24.0,0.,24.0,0.,24.0
1979-07-02 19:09:20.770 ,3,0,0.,24.0,0.,24.0,0.,24.0,0.,24.0
1979-07-02 19:09:44.770 ,2,1,0.,24.0,0.,24.0,0.,24.0,0.,24.0
1979-07-02 19:10:08.770 ,2,0,0.,24.0,0.,24.0,0.,24.0,0.,24.0
1979-07-02 19:10:32.770 ,1,1,0.,24.0,0.,24.0,0.,24.0,0.,24.0
1979-07-02 19:10:56.770 ,0,0,0.,24.0,0.,24.0,0.,24.0,0.,24.0
1979-07-02 19:12:29.170 ,0,0,,0,,0,,0,,0
1979-07-02 19:12:32.770 ,0,0,0.,24.0,0.,24.0,0.,24.0,0.,24.0
1979-07-02 19:12:56.770 ,1,1,0.,24.0,0.,24.0,0.,24.0,0.,24.0
1979-07-02 19:13:20.770 ,1,0,0.,24.0,0.,24.0,0.,24.0,0.,24.0
1979-07-02 19:13:44.770 ,2,1,0.,24.0,0.,24.0,0.,24.0,0.,24.0
1979-07-02 19:14:08.770 ,2,0,0.,24.0,0.,24.0,0.,24.0,0.,24.0
1979-07-02 19:14:32.770 ,3,1,0.,24.0,0.,24.0,0.,24.0,0.,24.0
1979-07-02 19:14:56.770 ,3,0,0.,24.0,0.,24.0,0.,24.0,0.,24.0
1979-07-02 19:15:20.770 ,4,1,0.,24.0,0.,24.0,0.,24.0,0.,24.0
1979-07-02 19:15:44.770 ,4,0,0.,24.0,0.,24.0,0.,24.0,0.,24.0
1979-07-02 19:16:08.770 ,5,1,0.,24.0,0.,24.0,0.,24.0,0.,24.0
1979-07-02 19:16:32.770 ,5,0,0.,24.0,0.,24.0,0.,24.0,0.,24.0
1979-07-02 19:16:56.770 ,6,1,0.,24.0,0.,24.0,0.,24.0,0.,24.0
1979-07-02 19:17:20.770 ,6,0,0.,24.0,0.,24.0,0.,24.0,0.,24.0
1979-07-02 19:17:44.770 ,7,1,0.,24.0,0.,24.0,0.,24.0,0.,24.0
1979-07-02 19:18:08.770 ,7,0,0.,24.0,0.,24.0,0.,24.0,0.,24.0
1979-07-02 19:18:32.770 ,7,1,0.,24.0,0.,24.0,0.,24.0,0.,24.0
1979-07-02 19:18:56.770 ,7,0,0.,24.0,0.,24.0,0.,24.0,0.,24.0
1979-07-02 19:19:20.770 ,6,1,0.,24.0,0.,24.0,0.,24.0,0.,24.0
1979-07-02 19:19:44.770 ,6,0,0.,24.0,0.,24.0,0.,24.0,0.,24.0
1979-07-02 19:20:08.770 ,5,1,0.,24.0,0.,24.0,0.,24.0,0.,24.0
1979-07-02 19:20:32.770 ,5,0,0.,24.0,0.,24.0,0.,24.0,0.,24.0
1979-07-02 19:20:56.770 ,4,1,0.,24.0,0.,24.0,0.,24.0,0.,24.0
1979-07-02 19:21:20.770 ,4,0,0.,24.0,0.,24.0,0.,24.0,0.,24.0
1979-07-02 19:21:44.770 ,3,1,0.,24.0,0.,24.0,0.,24.0,0.,24.0
1979-07-02 19:22:08.770 ,0,0,0.,24.0,0.,24.0,0.,24.0,0.,24.0
1979-07-02 19:22:32.770 ,2,0,,0,,0,,0,,0
1979-07-02 19:22:56.770 ,2,0,0.,24.0,0.,24.0,0.,24.0,0.,24.0
1979-07-02 19:23:20.770 ,1,1,0.,24.0,0.,24.0,0.,24.0,0.,24.0
1979-07-02 19:23:44.770 ,1,0,0.,24.0,0.,24.0,0.,24.0,0.,24.0
1979-07-02 19:24:08.770 ,0,1,0.,24.0,0.,24.0,0.,24.0,0.,24.0
1979-07-02 19:24:32.770 ,0,0,0.,24.0,0.,24.0,0.,24.0,0.,24.0
1979-07-02 19:24:56.770 ,0,1,0.,24.0,0.,24.0,0.,24.0,0.,24.0
1979-07-02 19:25:20.770 ,0,0,0.,24.0,0.,24.0,0.,24.0,0.,24.0
1979-07-02 19:25:44.770 ,1,0,,0,,0,,0,,0
1979-07-02 19:26:08.770 ,1,0,0.,24.0,0.,24.0,0.,24.0,0.,24.0
1979-07-02 19:26:32.770 ,2,1,0.,24.0,0.,24.0,0.,24.0,0.,24.0
1979-07-02 19:26:56.770 ,2,0,0.,24.0,0.,24.0,0.,24.0,0.,24.0
1979-07-02 19:27:20.770 ,3,1,0.,24.0,0.,24.0,0.,24.0,0.,24.0
1979-07-02 19:27:44.770 ,3,0,0.,24.0,0.,24.0,0.,24.0,0.,24.0
1979-07-02 19:28:08.770 ,4,1,0.,24.0,0.,24.0,0.,24.0,0.,24.0
1979-07-02 19:28:32.770 ,4,0,0.,24.0,8192.,24.0,0.,24.0,0.,24.0
1979-07-02 19:28:56.770 ,5,1,0.,24.0,0.,24.0,0.,24.0,0.,24.0
1979-07-02 19:29:20.770 ,5,0,0.,24.0,0.,24.0,0.,24.0,0.,24.0
1979-07-02 19:29:44.770 ,6,1,0.,24.0,0.,24.0,0.,24.0,0.,24.0
1979-07-02 19:30:08.770 ,6,0,0.,24.0,0.,24.0,0.,24.0,0.,24.0
1979-07-02 19:30:32.770 ,7,0,0.,24.0,0.,24.0,0.,24.0,0.,24.0
1979-07-02 19:30:56.770 ,7,0,0.,24.0,0.,24.0,0.,24.0,0.,24.0
1979-07-02 19:31:20.770 ,5,1,0.,24.0,0.,24.0,0.,24.0,0.,24.0
1979-07-02 19:31:44.770 ,1,1,0.,24.0,0.,24.0,0.,24.0,0.,24.0
1979-07-02 19:32:08.770 ,2,1,0.,24.0,0.,24.0,0.,24.0,0.,24.0
1979-07-02 19:32:32.770 ,6,1,0.,24.0,0.,24.0,0.,24.0,0.,24.0
1979-07-02 19:32:56.770 ,5,1,0.,24.0,0.,24.0,0.,24.0,0.,24.0
1979-07-02 19:33:20.770 ,1,1,0.,24.0,0.,24.0,0.,24.0,0.,24.0
1979-07-02 19:33:44.770 ,2,1,0.,24.0,0.,24.0,0.,24.0,0.,24.0
1979-07-02 19:34:08.770 ,0,0,,0,,0,,0,,0
1979-07-02 19:34:18.970 ,7,1,,0,,0,,0,,0
1979-07-02 19:34:32.770 ,5,1,0.,24.0,0.,24.0,0.,24.0,0.,24.0
1979-07-02 19:34:56.770 ,1,1,0.,24.0,0.,24.0,0.,24.0,0.,24.0
1979-07-02 19:35:20.770 ,2,1,0.,24.0,0.,24.0,0.,24.0,0.,24.0
1979-07-02 19:35:44.770 ,6,1,0.,24.0,0.,24.0,0.,24.0,0.,24.0
1979-07-02 19:36:08.770 ,5,1,0.,24.0,0.,24.0,0.,24.0,0.,24.0
1979-07-02 19:36:32.770 ,1,1,0.,24.0,0.,24.0,0.,24.0,0.,24.0
1979-07-02 19:36:56.770 ,2,1,0.,24.0,0.,24.0,0.,24.0,0.,24.0
1979-07-02 19:37:20.770 ,6,1,0.,24.0,0.,24.0,0.,24.0,0.,24.0
1979-07-02 19:37:44.770 ,5,1,0.,24.0,0.,24.0,0.,24.0,0.,24.0
1979-07-02 19:38:08.770 ,1,1,0.,24.0,0.,24.0,0.,24.0,0.,24.0
1979-07-02 19:38:32.770 ,2,1,0.,24.0,0.,24.0,0.,24.0,0.,24.0
1979-07-02 19:38:56.770 ,6,1,0.,24.0,0.,24.0,0.,24.0,0.,24.0
1979-07-02 19:39:20.770 ,5,1,0.,24.0,0.,24.0,0.,24.0,0.,24.0
1979-07-02 19:39:44.770 ,1,1,0.,24.0,0.,24.0,0.,24.0,0.,24.0
1979-07-02 19:40:08.770 ,2,1,0.,24.0,0.,24.0,0.,24.0,0.,24.0
1979-07-02 19:40:32.770 ,6,1,0.,24.0,0.,24.0,0.,24.0,0.,24.0
1979-07-02 19:40:56.770 ,5,1,0.,24.0,0.,24.0,0.,24.0,0.,24.0
1979-07-02 19:41:20.770 ,1,1,0.,24.0,0.,24.0,0.,24.0,0.,24.0
1979-07-02 19:41:44.770 ,0,0,0.,24.0,0.,24.0,0.,24.0,0.,24.0
1979-07-02 19:42:08.770 ,0,0,0.,24.0,0.,24.0,0.,24.0,0.,24.0
1979-07-02 19:42:32.770 ,5,1,0.,24.0,0.,24.0,0.,24.0,0.,24.0
1979-07-02 19:42:56.770 ,5,0,0.,24.0,0.,24.0,0.,24.0,0.,24.0
1979-07-02 19:43:20.770 ,4,1,0.,24.0,0.,24.0,0.,24.0,0.,24.0
1979-07-02 19:43:44.770 ,4,0,1.,24.0,0.,24.0,0.,24.0,0.,24.0
1979-07-02 19:44:08.770 ,3,1,0.,24.0,0.,24.0,0.,24.0,0.,24.0
1979-07-02 19:44:32.770 ,3,0,0.,24.0,0.,24.0,0.,24.0,0.,24.0
1979-07-02 19:44:56.770 ,2,1,0.,24.0,0.,24.0,0.,24.0,0.,24.0
1979-07-02 19:45:20.770 ,2,0,0.,24.0,0.,24.0,0.,24.0,0.,24.0
1979-07-02 19:45:44.770 ,1,1,0.,24.0,0.,24.0,0.,24.0,0.,24.0
1979-07-02 19:46:08.770 ,1,0,0.,24.0,0.,24.0,0.,24.0,0.,24.0
1979-07-02 19:46:32.770 ,0,1,0.,24.0,0.,24.0,0.,24.0,0.,24.0
1979-07-02 19:46:56.770 ,0,0,0.,24.0,0.,24.0,0.,24.0,0.,24.0
1979-07-02 19:47:20.770 ,0,1,0.,24.0,0.,24.0,0.,24.0,0.,24.0
1979-07-02 19:47:44.770 ,0,0,0.,24.0,0.,24.0,0.,24.0,0.,24.0
1979-07-02 19:48:08.770 ,1,1,0.,24.0,0.,24.0,0.,24.0,0.,24.0
1979-07-02 19:48:32.770 ,1,0,0.,24.0,0.,24.0,0.,24.0,0.,24.0
1979-07-02 19:48:56.770 ,2,1,0.,24.0,0.,24.0,0.,24.0,0.,24.0
1979-07-02 19:49:20.770 ,2,0,0.,24.0,0.,24.0,0.,24.0,0.,24.0
1979-07-02 19:49:44.770 ,3,1,0.,24.0,0.,24.0,0.,24.0,0.,24.0
1979-07-02 19:50:08.770 ,3,0,0.,24.0,0.,24.0,0.,24.0,0.,24.0
1979-07-02 19:50:32.770 ,4,1,0.,24.0,0.,24.0,0.,24.0,0.,24.0
1979-07-02 19:50:56.770 ,4,0,0.,24.0,0.,24.0,0.,24.0,0.,24.0
1979-07-02 19:51:20.770 ,5,1,0.,24.0,0.,24.0,0.,24.0,0.,24.0
1979-07-02 19:51:44.770 ,5,0,0.,24.0,0.,24.0,0.,24.0,0.,24.0
1979-07-02 19:52:08.770 ,6,1,0.,24.0,0.,24.0,0.,24.0,0.,24.0
1979-07-02 19:52:32.770 ,6,0,0.,24.0,0.,24.0,0.,24.0,0.,24.0
1979-07-02 19:52:56.770 ,7,1,0.,24.0,0.,24.0,0.,24.0,0.,24.0
1979-07-02 19:53:20.770 ,7,0,0.,24.0,0.,24.0,0.,24.0,0.,24.0
1979-07-02 19:53:44.770 ,7,1,0.,24.0,0.,24.0,0.,24.0,0.,24.0
1979-07-02 19:54:08.770 ,7,0,0.,24.0,0.,24.0,0.,24.0,0.,24.0
1979-07-02 19:54:32.770 ,6,1,0.,24.0,0.,24.0,0.,24.0,0.,24.0
1979-07-02 19:54:56.770 ,6,0,0.,24.0,0.,24.0,0.,24.0,0.,24.0
1979-07-02 19:55:20.770 ,5,1,0.,24.0,0.,24.0,0.,24.0,0.,24.0
1979-07-02 19:55:44.770 ,5,0,0.,24.0,0.,24.0,0.,24.0,0.,24.0
1979-07-02 19:56:08.770 ,4,1,0.,24.0,0.,24.0,0.,24.0,0.,24.0
1979-07-02 19:56:32.770 ,4,0,0.,24.0,0.,24.0,0.,24.0,0.,24.0
1979-07-02 19:56:56.770 ,3,1,0.,24.0,0.,24.0,0.,24.0,0.,24.0
1979-07-02 19:57:20.770 ,3,0,0.,24.0,0.,24.0,0.,24.0,0.,24.0
1979-07-02 19:57:44.770 ,2,1,0.,24.0,0.,24.0,0.,24.0,0.,24.0
1979-07-02 19:58:08.770 ,2,0,0.,24.0,0.,24.0,0.,24.0,0.,24.0
1979-07-02 19:58:32.770 ,1,1,0.,24.0,0.,24.0,0.,24.0,0.,24.0
1979-07-02 19:58:56.770 ,1,0,0.,24.0,0.,24.0,0.,24.0,0.,24.0
1979-07-02 19:59:20.770 ,0,1,0.,24.0,0.,24.0,0.,24.0,0.,24.0
1979-07-02 19:59:44.770 ,0,0,0.,24.0,0.,24.0,0.,24.0,0.,24.0
1979-07-02 20:00:08.770 ,0,1,0.,24.0,0.,24.0,0.,24.0,0.,24.0
1979-07-02 20:00:32.770 ,0,0,0.,24.0,0.,24.0,0.,24.0,0.,24.0
1979-07-02 20:00:56.770 ,1,1,0.,24.0,0.,24.0,0.,24.0,0.,24.0
1979-07-02 20:01:20.770 ,1,0,0.,24.0,0.,24.0,0.,24.0,0.,24.0
1979-07-02 20:01:44.770 ,2,1,0.,24.0,0.,24.0,0.,24.0,0.,24.0
1979-07-02 20:02:08.770 ,2,0,0.,24.0,0.,24.0,0.,24.0,0.,24.0
1979-07-02 20:02:32.770 ,3,1,0.,24.0,0.,24.0,0.,24.0,0.,24.0
1979-07-02 20:02:56.770 ,3,0,0.,24.0,0.,24.0,0.,24.0,0.,24.0
1979-07-02 20:03:20.770 ,4,1,0.,24.0,0.,24.0,0.,24.0,0.,24.0
1979-07-02 20:03:44.770 ,4,0,0.,24.0,0.,24.0,0.,24.0,0.,24.0
1979-07-02 20:04:08.770 ,5,1,0.,24.0,0.,24.0,0.,24.0,0.,24.0
1979-07-02 20:04:32.770 ,5,0,0.,24.0,0.,24.0,0.,24.0,0.,24.0
1979-07-02 20:04:56.770 ,6,1,0.,24.0,0.,24.0,0.,24.0,0.,24.0
1979-07-02 20:05:20.770 ,6,0,1.,24.0,0.,24.0,0.,24.0,0.,24.0
1979-07-02 20:05:44.770 ,7,1,0.,24.0,0.,24.0,0.,24.0,0.,24.0
1979-07-02 20:06:08.770 ,7,0,0.,24.0,0.,24.0,0.,24.0,0.,24.0
1979-07-02 20:06:32.770 ,7,1,0.,24.0,0.,24.0,0.,24.0,0.,24.0
1979-07-02 20:06:56.770 ,7,0,0.,24.0,0.,24.0,0.,24.0,0.,24.0
1979-07-02 20:07:20.770 ,6,1,0.,24.0,0.,24.0,0.,24.0,0.,24.0
1979-07-02 20:07:44.770 ,6,0,0.,24.0,0.,24.0,0.,24.0,0.,24.0
1979-07-02 20:08:08.770 ,5,1,0.,24.0,0.,24.0,0.,24.0,0.,24.0
1979-07-02 20:08:32.770 ,5,0,1.,24.0,0.,24.0,0.,24.0,0.,24.0
1979-07-02 20:08:56.770 ,4,1,0.,24.0,0.,24.0,0.,24.0,0.,24.0
1979-07-02 20:09:20.770 ,4,0,0.,24.0,0.,24.0,0.,24.0,0.,24.0
1979-07-02 20:09:44.770 ,3,1,0.,24.0,0.,24.0,0.,24.0,0.,24.0
1979-07-02 20:10:08.770 ,3,0,0.,24.0,0.,24.0,0.,24.0,0.,24.0
1979-07-02 20:10:32.770 ,2,1,0.,24.0,0.,24.0,0.,24.0,0.,24.0
1979-07-02 20:10:56.770 ,2,0,0.,24.0,0.,24.0,0.,24.0,0.,24.0
1979-07-02 20:11:20.770 ,1,1,0.,24.0,0.,24.0,0.,24.0,0.,24.0
1979-07-02 20:11:44.770 ,1,0,0.,24.0,0.,24.0,0.,24.0,0.,24.0
1979-07-02 20:12:08.770 ,0,1,1.,24.0,0.,24.0,0.,24.0,0.,24.0
1979-07-02 20:12:32.770 ,0,0,0.,24.0,0.,24.0,0.,24.0,0.,24.0
1979-07-02 20:12:56.770 ,0,1,0.,24.0,0.,24.0,0.,24.0,0.,24.0
1979-07-02 20:13:20.770 ,0,0,0.,24.0,0.,24.0,0.,24.0,0.,24.0
1979-07-02 20:13:44.770 ,1,1,0.,24.0,0.,24.0,0.,24.0,0.,24.0
1979-07-02 20:14:08.770 ,1,0,1.,24.0,0.,24.0,0.,24.0,0.,24.0
1979-07-02 20:14:32.770 ,2,1,1.,24.0,0.,24.0,0.,24.0,0.,24.0
1979-07-02 20:14:56.770 ,2,0,0.,24.0,0.,24.0,0.,24.0,0.,24.0
1979-07-02 20:15:20.770 ,3,1,0.,24.0,0.,24.0,0.,24.0,0.,24.0
1979-07-02 20:15:44.770 ,3,0,0.,24.0,0.,24.0,0.,24.0,0.,24.0
1979-07-02 20:16:08.770 ,4,1,0.,24.0,0.,24.0,0.,24.0,0.,24.0
1979-07-02 20:16:32.770 ,4,0,0.,24.0,0.,24.0,0.,24.0,0.,24.0
1979-07-02 20:16:56.770 ,5,1,1.,24.0,0.,24.0,0.,24.0,0.,24.0
1979-07-02 20:17:20.770 ,5,0,0.,24.0,0.,24.0,0.,24.0,0.,24.0
1979-07-02 20:17:44.770 ,6,1,0.,24.0,0.,24.0,0.,24.0,0.,24.0
1979-07-02 20:18:08.770 ,6,0,0.,24.0,0.,24.0,0.,24.0,0.,24.0
1979-07-02 20:18:32.770 ,7,0,0.,24.0,0.,24.0,0.,24.0,0.,24.0
1979-07-02 20:18:56.770 ,7,0,0.,24.0,0.,24.0,0.,24.0,0.,24.0
1979-07-02 20:19:20.770 ,5,1,0.,24.0,0.,24.0,0.,24.0,0.,24.0
1979-07-02 20:19:44.770 ,1,1,0.,24.0,0.,24.0,0.,24.0,0.,24.0
1979-07-02 20:20:08.770 ,2,1,0.,24.0,0.,24.0,0.,24.0,0.,24.0
1979-07-02 20:20:32.770 ,6,1,0.,24.0,0.,24.0,0.,24.0,0.,24.0
1979-07-02 20:20:56.770 ,5,1,0.,24.0,0.,24.0,0.,24.0,0.,24.0
1979-07-02 20:21:20.770 ,1,1,0.,24.0,0.,24.0,0.,24.0,0.,24.0
1979-07-02 20:21:44.770 ,2,1,0.,24.0,0.,24.0,0.,24.0,0.,24.0
1979-07-02 20:22:08.770 ,6,1,0.,24.0,0.,24.0,0.,24.0,0.,24.0
1979-07-02 20:22:32.770 ,5,1,0.,24.0,0.,24.0,0.,24.0,0.,24.0
1979-07-02 20:22:56.770 ,1,1,0.,24.0,0.,24.0,0.,24.0,0.,24.0
1979-07-02 20:23:20.770 ,2,1,0.,24.0,0.,24.0,0.,24.0,0.,24.0
1979-07-02 20:23:44.770 ,6,1,0.,24.0,0.,24.0,0.,24.0,0.,24.0
1979-07-02 20:24:08.770 ,5,1,0.,24.0,0.,24.0,0.,24.0,0.,24.0
1979-07-02 20:24:32.770 ,1,1,0.,24.0,0.,24.0,0.,24.0,0.,24.0
1979-07-02 20:24:56.770 ,2,1,0.,24.0,0.,24.0,0.,24.0,0.,24.0
1979-07-02 20:25:20.770 ,6,1,0.,24.0,0.,24.0,0.,24.0,0.,24.0
1979-07-02 20:25:44.770 ,5,1,0.,24.0,0.,24.0,0.,24.0,0.,24.0
1979-07-02 20:26:08.770 ,1,1,0.,24.0,0.,24.0,0.,24.0,0.,24.0
1979-07-02 20:26:32.770 ,2,1,1.,24.0,0.,24.0,0.,24.0,0.,24.0
1979-07-02 20:26:56.770 ,6,1,0.,24.0,0.,24.0,0.,24.0,0.,24.0
1979-07-02 20:27:20.770 ,5,1,0.,24.0,0.,24.0,0.,24.0,0.,24.0
1979-07-02 20:27:44.770 ,1,1,0.,24.0,0.,24.0,0.,24.0,0.,24.0
1979-07-02 20:28:08.770 ,2,1,0.,24.0,0.,24.0,0.,24.0,0.,24.0
1979-07-02 20:28:32.770 ,6,1,0.,24.0,0.,24.0,0.,24.0,0.,24.0
1979-07-02 20:28:56.770 ,5,1,0.,24.0,0.,24.0,0.,24.0,0.,24.0
1979-07-02 20:29:20.770 ,1,1,0.,24.0,0.,24.0,0.,24.0,0.,24.0
1979-07-02 20:29:44.770 ,0,0,0.,24.0,0.,24.0,0.,24.0,0.,24.0
1979-07-02 20:30:08.770 ,0,0,0.,24.0,0.,24.0,0.,24.0,0.,24.0
1979-07-02 20:30:32.770 ,5,1,0.,24.0,0.,24.0,0.,24.0,0.,24.0
1979-07-02 20:30:56.770 ,5,0,0.,24.0,0.,24.0,0.,24.0,0.,24.0
1979-07-02 20:31:20.770 ,4,1,0.,24.0,0.,24.0,0.,24.0,0.,24.0
1979-07-02 20:31:44.770 ,4,0,0.,24.0,0.,24.0,0.,24.0,0.,24.0
1979-07-02 20:32:08.770 ,3,1,0.,24.0,0.,24.0,0.,24.0,0.,24.0
1979-07-02 20:32:32.770 ,3,0,0.,24.0,0.,24.0,0.,24.0,0.,24.0
1979-07-02 20:32:56.770 ,2,1,0.,24.0,0.,24.0,0.,24.0,0.,24.0
1979-07-02 20:33:20.770 ,2,0,0.,24.0,0.,24.0,0.,24.0,0.,24.0
1979-07-02 20:33:44.770 ,1,1,0.,24.0,0.,24.0,0.,24.0,0.,24.0
1979-07-02 20:34:08.760 ,1,0,0.,24.0,0.,24.0,0.,24.0,0.,24.0
1979-07-02 20:35:20.760 ,0,0,0.,24.0,0.,24.0,0.,24.0,0.,24.0
1979-07-02 20:35:44.760 ,0,0,0.,24.0,0.,24.0,0.,24.0,0.,24.0
1979-07-02 20:36:08.760 ,1,1,0.,24.0,0.,24.0,0.,24.0,0.,24.0
1979-07-02 20:36:32.760 ,1,0,0.,24.0,0.,24.0,0.,24.0,0.,24.0
1979-07-02 20:36:56.760 ,2,1,0.,24.0,0.,24.0,0.,24.0,0.,24.0
1979-07-02 20:37:20.760 ,2,0,0.,24.0,0.,24.0,0.,24.0,0.,24.0